User: anonymous   Login
Location: Browne Barr
(41.2080°N, 111.9480°W)
Time: 07:09:46
(UTC+00:00)
Language:

AO-92 - Orbit

View from above orbital plane
View from above orbital plane
View from above satellite
View from above satellite

Ground track
Ground track

The orbit data is extracted from the following two-line orbital elements,

1 43137U 18004AC  21209.92400771  .00002160  00000-0  88264-4 0  9996
2 43137  97.4046 283.5323 0010323  70.0842 290.1507 15.25419729196988
Epoch (UTC): 28 July 2021 22:10:34
Eccentricity: 0.0010323
inclination: 97.4046°
perigee height: 482 km
apogee height: 496 km
right ascension of ascending node: 283.5323°
argument of perigee: 70.0842°
revolutions per day: 15.25419729
mean anomaly at epoch: 290.1507°
orbit number at epoch: 19698

The dashed part of the orbit path shows where the satellite is in the earth's shadow,  

DLR